Other Public Products
Issued by NWS Grand Forks, ND

Home | Current Version | Previous Version | Graphics & Text | Print | Product List | Glossary On
Versions: 1 2 3 4 5 6 7 8 9 10 11 12 13 14 15 16 17 18 19 20 21 22 23 24 25 26 27 28 29 30 31 32 33 34 35 36 37 38 39 40 41 42 43 44 45 46 47 48 49 50
000
FPUS83 KFGF 060231
OPUFGF
PRAIRIE TO PINES WEATHER ROUNDUP
NATIONAL WEATHER SERVICE EASTERN NORTH DAKOTA/GRAND FORKS ND
800 PM CST MON DEC 05 2016

 **SATELLITE DATA USED TO AUGMENT SKY COVER AT AUTOMATED STATIONS**
 *****  WEATHER ACROSS EASTERN NORTH DAKOTA  *****

CITY           SKY/WX    TMP DP  RH WIND       PRES   REMARKS
GRAND FORKS    SNOW      30  27  88 NE16      29.53F VSB 1/2 WCI  19
GRAND FORKS AF LGT SNOW  28  28 100 NE15      29.52F VSB 3/4 WCI  17
GRAND CITY NWS   N/A     28 N/A N/A NE20        N/A  WCI  15
BUXTON           N/A     44  44  99 NE13        N/A
DEVILS LAKE    LGT SNOW  27  27 100 NE16      29.54F FOG     WCI  14
FARGO          CLOUDY    34  31  88 E5        29.44F
WAHPETON ARPT  CLOUDY    32  32 100 S8        29.45F WCI  25
$$

 *****  WEATHER ACROSS CENTRAL AND WESTERN NORTH DAKOTA  *****

CITY           SKY/WX    TMP DP  RH WIND       PRES   REMARKS
JAMESTOWN      LGT SNOW  24  21  88 NW22G30   29.52S VSB 3/4 WCI   9
BISMARCK       MIX PCPN  15  11  83 W24G32    29.70R FOG     WCI  -4
MINOT          LGT SNOW  22  20  92 NW24      29.63S VSB 1   WCI   5
MINOT AFB      NOT AVBL
GARRISON         N/A     16  12  84 NW36G43   29.66S WCI  -6
WILLISTON      LGT SNOW  11   6  81 NW30G40   29.86S VSB 3/4 WCI -11
DICKINSON      MIX PCPN   8   3  80 NW36G45   29.79S VSB 3/4 WCI -16
HETTINGER      MIX PCPN   8   2  76 NW32G44   29.81R WCI -16
$$

 *****  OTHER OBSERVATIONS NORTHEAST NORTH DAKOTA  *****

CITY           SKY/WX    TMP DP  RH WIND       PRES   REMARKS
WALHALLA         N/A     28  28 100 N13       29.64F WCI  18
LANGDON          N/A     28  28 100 MISG      29.59F FOG
CAVALIER         N/A     30  28  93 N12       29.62F WCI  21
GRAFTON        CLOUDY    30  28  93 NE17      29.60F WCI  18
CANDO          LGT SNOW  27  27 100 NE13      29.60F WCI  16
FORT TOTTEN      N/A     27  27 100 NE7       29.95S WCI  19
ROLLA          LGT SNOW  25  25 100 NE14      29.61F WCI  13
RUGBY          LGT SNOW  23  23 100 N9        29.59F WCI  13
 ***** THE ABOVE OBSERVATIONS ARE NON NWS ARE NOT QUALITY
        CONTROLLED AND MAY MIS-REPORT RAIN FOR SNOW...
$$

 *****  OTHER OBSERVATIONS SOUTHEAST NORTH DAKOTA *****

CITY           SKY/WX    TMP DP  RH WIND       PRES   REMARKS
COOPERSTOWN    SNOW      28  28 100 N15       29.48F VSB 1/2 WCI  17
VALLEY CITY    FOG       28  28 100 NW10      29.48F VSB 1/2 WCI  19
OAKES          NOT AVBL
GWINNER          N/A     32  30  93 W20G29    29.48R WCI  20
SHEYENNE NWR     N/A     33  31  92 CALM      29.95S
BUFFALO          N/A     30  28  95 N9          N/A  WCI  21
WYNDMERE         N/A     34  34 100 SW12        N/A
 ***** THE ABOVE OBSERVATIONS ARE NON NWS ARE NOT QUALITY
       CONTROLLED AND MAY MIS-REPORT RAIN FOR SNOW...
$$

  *****  WEATHER ACROSS NORTHERN MINNESOTA  *****

CITY           SKY/WX    TMP DP  RH WIND       PRES   REMARKS
FLAG ISLAND    CLOUDY    30  27  86 E10       29.66F WCI  21
WARROAD        CLOUDY    30  27  86 E17G23    29.63F WCI  18
ROSEAU         CLOUDY    30  27  86 E15G24    29.61F WCI  19
HALLOCK        CLOUDY    32  28  86 E13       29.61S WCI  22
THF RVR FALLS  LGT SNOW  28  27  93 NE16      29.52F VSB 3/4 WCI  17
HALSTAD          N/A     32  30  93 E13         N/A  WCI  22
FOSSTON        LGT SNOW  30  28  93 E10       29.48F WCI  21
BAUDETTE       CLOUDY    30  25  81 E16       29.63F WCI  19
WASKISH        LGT SNOW  30  28  93 E12G18    29.57F WCI  21
CROOKSTON      LGT SNOW  30  30 100 E16       29.50F VSB 3/4 WCI  19
$$
  *****  WEATHER ACROSS CENTRAL AND WEST MINNESOTA  *****

CITY           SKY/WX    TMP DP  RH WIND       PRES   REMARKS
BEMIDJI        FLURRIES  31  31  96 E13G18    29.50F WCI  22
PARK RAPIDS    CLOUDY    34  30  85 SE8       29.48F
WADENA         CLOUDY    34  32  93 SE9       29.45F
DETROIT LAKES  CLOUDY    34  32  93 SE12      29.44F
MOORHEAD       CLOUDY    34  30  86 SE7       29.44F
FERGUS FALLS   CLOUDY    36  34  93 S9        29.48F
ELBOW LAKE     CLOUDY    34  33  95 W14       29.46S WCI  25
MORRIS MN      CLOUDY    36  32  87 SW15G21   29.50R
STAPLES        CLOUDY    34  32  93 SE8       29.48F
WHEATON        CLOUDY    36  32  87 SW18G26   29.52R
$$
  *****  WEATHER ELSEWHERE ACROSS MINNESOTA  *****

CITY           SKY/WX    TMP DP  RH WIND       PRES   REMARKS
DULUTH         CLOUDY    34  33  96 SE14      29.66F FOG     WCI  25
INTRNTL FALLS  SNOW      29  26  89 E14       29.64F VSB 1/2 WCI  18
ELY            FAIR      30  28  93 E12G18    29.66F WCI  21
CLOQUET        LGT SNOW  34  30  86 E8G21     29.64F
BRAINERD       CLOUDY    35  32  88 SE10      29.53F
HIBBING        LGT SNOW  32  31  96 SE16      29.61F VSB 3/4 WCI  21
ALEXANDRIA     MOCLDY    35  32  88 S16G28    29.47F
SAINT CLOUD    CLOUDY    38  34  85 S20G25    29.55S
MINNEAPOLIS    CLOUDY    38  31  76 S15G28    29.65F
$$

  *****  WEATHER ACROSS SOUTH DAKOTA  *****

CITY           SKY/WX    TMP DP  RH WIND       PRES   REMARKS
SIOUX FALLS    CLOUDY    32  27  81 W18G30    29.71R WCI  20
BROOKINGS      CLOUDY    29  24  82 W35G40    29.63R WCI  12
WATERTOWN      CLOUDY    28  24  85 W28G39    29.57R WCI  13
HURON          CLOUDY    25  18  74 NW28G39   29.75R WCI   9
SISSETON         N/A     33  28  81 NW24G40   29.48R WCI  20
ABERDEEN       CLEAR     24  17  74 W24G40    29.64R WCI   8
MITCHELL       CLOUDY    28  20  71 NW25G38   29.78R WCI  13
PIERRE         MOCLDY    20  12  71 NW41G52   29.80R BLWGSNOWWCI  -1
MOBRIDGE       MOCLDY    16   9  74 NW28G37   29.74S BLWGSNOWWCI  -4
RAPID CITY     CLEAR     18  11  74 N21       29.85S WCI   1
$$

  *****  SOME WEATHER IN NEARBY STATES *****

CITY           SKY/WX    TMP DP  RH WIND       PRES   REMARKS
GLASGOW MT     MOCLDY     6  -2  69 W24       30.04R WCI -16
GREAT FALLS MT CLOUDY     8   2  76 NW7       30.08R WCI  -3
CHEYENNE WY    CLOUDY    20  -8  28 NW16G30   29.84R WCI   6
SCOTTSBLUFF NE CLEAR     18   9  68 NW9       29.92R WCI   7
OMAHA NE       LGT RAIN  45  37  73 S8        29.72S
DES MOINES IA  MOCLDY    40  35  83 S8        29.77R
DAVENPORT IA   CLOUDY    33  30  88 SE18      29.88F WCI  22
CHICAGO IL     CLOUDY    32  29  88 SE9       29.97F FOG     WCI  24
EAU CLAIRE WI  MOCLDY    36  30  79 S7        29.75R
LA CROSSE WI   CLOUDY    38  31  76 SE15      29.80S
$$

  *****  SOME NATIONAL WEATHER *****

CITY           SKY/WX    TMP DP  RH WIND       PRES   REMARKS
LA GUARDIA NY  FAIR      47  32  56 NW9       30.08R
RALEIGH NC     LGT RAIN  51  45  79 E6        30.08R
ATLANTA GA     LGT RAIN  52  52 100 E17       29.88F VSB 1/2
NEW ORLEANS LA LGT RAIN  63  63 100 SE9       29.69F
OKLAHOMA CITY  MOCLDY    43  41  93 SE8       29.69R
ALBUQUERQUE NM PTCLDY    48  16  27 N8        29.86R
SALT LAKE CITY MOCLDY    30   9  41 E3        30.02F
LOS ANGELES CA PTCLDY    59  55  87 W7        29.93S
BOISE ID       CLEAR     25  16  68 SE6       30.04F WCI  18
SEATTLE WA     CLOUDY    37  36  96 SE5       30.01S
$$

*** WEATHER ACROSS MANITOBA...SASKATCHEWAN AND ONTARIO ***
                ***ONTARIO***

CITY           SKY/WX    TMP DP  RH WIND       PRES   REMARKS
GERALDTON      FLURRIES  28  28 100 VRB2      29.87S
THUNDER BAY    CLOUDY    32  30  93 CALM      29.88R
SIOUX LOOKOUT  CLOUDY    30  27  86 E3        29.78
TORONTO        MOCLDY    39  32  75 SW14      30.05S
BIG TROUT LK   FLURRIES  25  23  93 CALM      29.86R
PICKLE LAKE    PTCLDY    25  23  93 E5        29.81R WCI  19
DRYDEN         CLOUDY    30  27  86 E9        29.74F WCI  22
KENORA         FLURRIES  30  27  86 E10G18    29.70F WCI  21
$$
                *** MANITOBA***

CITY           SKY/WX    TMP DP  RH WIND       PRES   REMARKS
BRANDON        LGT SNOW  25  25 100 NE21      29.69S DRFTSNOWWCI  10
DAUPHIN        LGT SNOW  23  23 100 N15       29.81S WCI  10
ISLAND LAKE    NOT AVBL
PILOT MOUND      N/A     27  25  93 NE17        N/A  WCI  14
THE PAS        FLURRIES  19  16  86 W13G20    29.90R WCI   7
THOMPSON       FLURRIES  23  23 100 NE3       29.87R
WINNIPEG       FLURRIES  30  27  86 NE17      29.71S WCI  18
LYNN LAKE      LGT SNOW  21  21 100 N3        29.85R
CHURCHILL      FLURRIES  23  21  93 NW5       29.94  WCI  17
GILLAM         FLURRIES  18  16  93 N3        29.91R
$$
                ***SASKATCHEWAN***

CITY           SKY/WX    TMP DP  RH WIND       PRES   REMARKS
ESTEVAN        SNOW      16  12  86 NW31G40   29.79R VSB 1/2 WCI  -5
KINDERSLEY     LGT SNOW   3  -2  78 NW14G26   30.08R BLWGSNOWWCI -15
LLOYDMINSTER   FLURRIES   0  -6  78 NW17G24   30.11R WCI -21
PRINCE ALBERT  FLURRIES   9   1  72 NW15G22   30.01R WCI  -8
REGINA         LGT SNOW  10   7  85 NW25G31   29.93R DRFTSNOWWCI -10
YORKTON        FLURRIES  16  16 100 NW20      29.84R WCC1F1C2F2C3F3C4F4C5F5C6F6C7F7C8F8C9F9CaFaCbFbCcFcCdFdCe!



USA.gov is the U.S. government's official web portal to all federal, state and local government web resources and services.